Rouyn Airport, Quebec

1:36 PM AST on December 18, 2017 (GMT -0400)
Rouyn Airport

Weather History for CYUY - January, 2013

Change the Weather History Date:

Tuesday, January 1, 2013

  Actual Average Record
Temperature  
Mean Temperature -4 °F -  
Max Temperature 3 °F - - ()
Min Temperature -11 °F - - ()
Degree Days  
Heating Degree Days 69    
Moisture  
Dew Point -11 °F    
Average Humidity 74    
Maximum Humidity 85    
Minimum Humidity 60    
Precipitation  
Precipitation 0.00 in - - ()
Sea Level Pressure  
Sea Level Pressure 29.95 in    
Wind  
Wind Speed 8 mph ()    
Max Wind Speed 14 mph    
Max Gust Speed 21 mph    
Visibility 13.7 miles    
Events Snow    
T = Trace of Precipitation, MM = Missing Value Source: Averaged Metar Reports

Daily Weather History Graph

Daily Weather History Graph

Search for Another Location

Airport or City:

Trip Planner

Search our weather history database for the weather conditions in past years. The results will help you decide how hot, cold, wet, or windy it might be!

Date:

Astronomy

Jan. 01, 2013 Rise Set
Actual Time 9:05 AM AST 5:32 PM AST
Civil Twilight 8:29 AM AST 6:08 PM AST
Nautical Twilight 7:49 AM AST 6:48 PM AST
Astronomical Twilight 7:12 AM AST 7:26 PM AST
Moon 10:24 PM AST (1/1) 10:56 AM AST (1/1)
Length of Visible Light 9h 39m
Length of Day
8h 26m
Waning Gibbous, 84% of the Moon is Illuminated
Jan 1
Waning Gibbous
Jan 4
Last Quarter
Jan 11
New
Jan 18
First Quarter
Jan 27
Full

Hourly Weather History & Observations

Time (AST) Temp. Windchill Dew Point Humidity Pressure Visibility Wind Dir Wind Speed Gust Speed Precip Events Conditions
12:00 AM 3.2 °F -13.9 °F -4.0 °F 72% 29.87 in 15.0 mi NW 12.7 mph 20.7 mph N/A Snow Light Snow Showers
1:00 AM -0.4 °F -17.6 °F -7.6 °F 72% 29.90 in 15.0 mi NW 11.5 mph 18.4 mph N/A Snow Light Snow Showers
2:00 AM -2.2 °F -18.9 °F -9.4 °F 71% 29.92 in 15.0 mi NW 10.4 mph 18.4 mph N/A Snow Light Snow Showers
3:00 AM -4.0 °F -20.2 °F -11.2 °F 71% 29.93 in 15.0 mi WNW 9.2 mph - N/A Snow Light Snow Showers
4:00 AM -4.0 °F -17.8 °F -9.4 °F 78% 29.95 in 10.0 mi WNW 6.9 mph - N/A Snow Light Snow Showers
5:00 AM -4.0 °F -20.2 °F -9.4 °F 78% 29.96 in 15.0 mi NW 9.2 mph - N/A Snow Light Snow Showers
6:00 AM -5.8 °F -16.7 °F -13.0 °F 71% 29.97 in 15.0 mi NW 4.6 mph - N/A Snow Light Snow Showers
7:00 AM -7.6 °F -22.1 °F -14.8 °F 71% 29.99 in 14.0 mi WNW 6.9 mph - N/A Snow Light Snow Showers
8:00 AM -9.4 °F -22.7 °F -14.8 °F 77% 30.00 in 15.0 mi WNW 5.8 mph - N/A   Partly Cloudy
8:37 AM -11.2 °F -26.4 °F -16.6 °F 77% 30.01 in 15.0 mi West 6.9 mph - N/A   Mostly Cloudy
9:00 AM -11.2 °F -23.0 °F -16.6 °F 77% 30.02 in 15.0 mi WSW 4.6 mph - N/A   Scattered Clouds
10:00 AM -11.2 °F -26.4 °F -16.6 °F 77% 30.01 in 15.0 mi West 6.9 mph - N/A   Partly Cloudy
10:18 AM -9.4 °F -25.6 °F -14.8 °F 77% 30.01 in 15.0 mi West 8.1 mph - N/A   Ice Crystals
11:00 AM -7.6 °F -23.4 °F -14.8 °F 71% 30.01 in 15.0 mi West 8.1 mph - N/A   Ice Crystals
12:00 PM -5.8 °F -24.4 °F -14.8 °F 65% 30.01 in 15.0 mi West 11.5 mph - N/A   Scattered Clouds
1:00 PM -4.0 °F -19.0 °F -13.0 °F 65% 29.98 in 15.0 mi SW 8.1 mph - N/A   Scattered Clouds
2:00 PM -2.2 °F -21.5 °F -13.0 °F 60% 29.96 in 15.0 mi WSW 13.8 mph - N/A   Mostly Cloudy
3:00 PM -2.2 °F -18.0 °F -11.2 °F 66% 29.94 in 15.0 mi West 9.2 mph - N/A   Mostly Cloudy
4:00 PM -2.2 °F -19.9 °F -9.4 °F 71% 29.92 in 15.0 mi WSW 11.5 mph - N/A   Mostly Cloudy
5:00 PM -0.4 °F -15.7 °F -7.6 °F 72% 29.91 in 15.0 mi SW 9.2 mph - N/A   Mostly Cloudy
6:00 PM -4.0 °F -16.3 °F -11.2 °F 71% 29.92 in 15.0 mi SW 5.8 mph - N/A   Ice Crystals
7:00 PM -2.2 °F -14.2 °F -7.6 °F 78% 29.92 in 6.0 mi SW 5.8 mph - N/A Snow Light Snow
8:00 PM -2.2 °F -10.4 °F -7.6 °F 78% 29.91 in 10.0 mi SW 3.5 mph - N/A Snow Light Snow
9:00 PM -4.0 °F - -7.6 °F 85% 29.91 in 10.0 mi Calm Calm - N/A Snow Light Snow
10:00 PM -4.0 °F -12.4 °F -7.6 °F 85% 29.92 in 8.0 mi WSW 3.5 mph - N/A Snow Light Snow
11:00 PM -2.2 °F -12.5 °F -5.8 °F 85% 29.92 in 12.0 mi NW 4.6 mph - N/A Snow Light Snow